When you browse on this site, cookies collect data to enhance your experience and personalize the content and advertising you see.
Visit our Privacy Policy to learn more. By continuing to use the site, you agree to this use of cookies and data.
  • In Germany
  • List of Countries
  • For 7 days
  • Water Temperature
  • Weather Map
  • Weather Widgets
  • user-avatar
    Login

    Hourly Weather Annaba

    Today, 10 December, Tuesday

    Time Temperature Precipitation Wind Pressure Humidity
    00:00 +11°C° 0.8 mm 7 mps 762 mmHg 84%
    01:00 +11°C° 0.8 mm 6 mps 762 mmHg 86%
    02:00 +11°C° 1.1 mm 7 mps 762 mmHg 84%
    03:00 +11°C° 1.1 mm 8 mps 761 mmHg 83%
    04:00 +11°C° 1.1 mm 9 mps 761 mmHg 81%
    05:00 +11°C° 0.4 mm 10 mps 761 mmHg 76%
    06:00 +11°C° 0.4 mm 11 mps 761 mmHg 72%
    07:00 +10°C° 0.4 mm 13 mps 761 mmHg 67%
    08:00 +10°C° 0.1 mm 13 mps 761 mmHg 65%
    09:00 +10°C° 0.1 mm 13 mps 761 mmHg 63%
    10:00 +12°C° 0.1 mm 14 mps 761 mmHg 60%
    11:00 +12°C° 0.1 mm 13 mps 761 mmHg 61%
    12:00 +12°C° 0.1 mm 13 mps 761 mmHg 62%
    13:00 +12°C° 0.1 mm 12 mps 761 mmHg 63%
    14:00 +12°C° 0.3 mm 11 mps 761 mmHg 66%
    15:00 +12°C° 0.3 mm 11 mps 760 mmHg 69%
    16:00 +11°C° 0.3 mm 10 mps 760 mmHg 72%
    17:00 +11°C° 0.5 mm 9 mps 761 mmHg 74%
    18:00 +11°C° 0.5 mm 9 mps 761 mmHg 75%
    19:00 +11°C° 0.5 mm 9 mps 761 mmHg 77%
    20:00 +10°C° 1.2 mm 8 mps 762 mmHg 79%
    21:00 +10°C° 1.2 mm 8 mps 762 mmHg 82%
    22:00 +10°C° 1.2 mm 8 mps 762 mmHg 84%
    23:00 +10°C° 1.1 mm 7 mps 763 mmHg 84%

    Tomorrow, 11 December, Wednesday

    Time Temperature Precipitation Wind Pressure Humidity
    00:00 +10°C° 1.1 mm 7 mps 763 mmHg 85%
    01:00 +10°C° 1.1 mm 6 mps 763 mmHg 85%
    02:00 +10°C° 0.5 mm 6 mps 763 mmHg 85%
    03:00 +9°C° 0.5 mm 6 mps 763 mmHg 85%
    04:00 +9°C° 0.5 mm 6 mps 762 mmHg 85%
    05:00 +9°C° 0.1 mm 6 mps 763 mmHg 85%
    06:00 +9°C° 0.1 mm 6 mps 763 mmHg 84%
    07:00 +9°C° 0.1 mm 6 mps 763 mmHg 84%
    08:00 +10°C° 0 mm 6 mps 763 mmHg 82%
    09:00 +11°C° 0 mm 6 mps 763 mmHg 79%
    10:00 +13°C° 0 mm 6 mps 763 mmHg 77%
    11:00 +13°C° 0 mm 6 mps 763 mmHg 75%
    12:00 +14°C° 0 mm 6 mps 762 mmHg 72%
    13:00 +14°C° 0 mm 6 mps 762 mmHg 70%
    14:00 +14°C° 0 mm 5 mps 761 mmHg 68%
    15:00 +14°C° 0 mm 5 mps 761 mmHg 67%
    16:00 +14°C° 0 mm 4 mps 760 mmHg 66%
    17:00 +13°C° 0 mm 4 mps 760 mmHg 69%
    18:00 +12°C° 0 mm 4 mps 760 mmHg 72%
    19:00 +10°C° 0 mm 5 mps 760 mmHg 76%
    20:00 +12°C° 0 mm 5 mps 760 mmHg 74%
    21:00 +12°C° 0 mm 5 mps 760 mmHg 73%
    22:00 +11°C° 0 mm 6 mps 760 mmHg 72%
    23:00 +11°C° 0.1 mm 6 mps 760 mmHg 72%

    Day after tomorrow, 12 December, Thursday

    Time Temperature Precipitation Wind Pressure Humidity
    00:00 +12°C° 0.1 mm 7 mps 760 mmHg 73%
    01:00 +12°C° 0.1 mm 7 mps 760 mmHg 74%
    02:00 +12°C° 0.2 mm 7 mps 760 mmHg 77%
    03:00 +12°C° 0.2 mm 7 mps 760 mmHg 81%
    04:00 +11°C° 0.2 mm 7 mps 760 mmHg 84%
    05:00 +11°C° 0.3 mm 6 mps 760 mmHg 85%
    06:00 +11°C° 0.3 mm 6 mps 761 mmHg 86%
    07:00 +12°C° 0.3 mm 5 mps 761 mmHg 88%
    08:00 +13°C° 0.2 mm 5 mps 762 mmHg 84%
    09:00 +13°C° 0.2 mm 5 mps 762 mmHg 80%
    10:00 +14°C° 0.2 mm 5 mps 762 mmHg 76%
    11:00 +14°C° 0.2 mm 6 mps 762 mmHg 73%
    12:00 +15°C° 0.2 mm 7 mps 761 mmHg 70%
    13:00 +15°C° 0.2 mm 9 mps 761 mmHg 67%
    14:00 +15°C° 0.1 mm 8 mps 761 mmHg 68%
    15:00 +13°C° 0.1 mm 8 mps 761 mmHg 69%
    16:00 +14°C° 0.1 mm 7 mps 760 mmHg 70%
    17:00 +12°C° 0.3 mm 7 mps 760 mmHg 73%
    18:00 +13°C° 0.3 mm 6 mps 760 mmHg 76%
    19:00 +11°C° 0.3 mm 6 mps 760 mmHg 79%
    20:00 +11°C° 0.4 mm 6 mps 761 mmHg 80%
    21:00 +11°C° 0.4 mm 6 mps 761 mmHg 80%
    22:00 +11°C° 0.4 mm 6 mps 761 mmHg 81%
    23:00 +10°C° 0.2 mm 7 mps 761 mmHg 80%

    13 December, Friday

    Time Temperature Precipitation Wind Pressure Humidity
    00:00 +10°C° 0.2 mm 7 mps 760 mmHg 79%
    01:00 +10°C° 0.2 mm 7 mps 760 mmHg 79%
    02:00 +10°C° 0.1 mm 7 mps 760 mmHg 79%
    03:00 +10°C° 0.1 mm 7 mps 760 mmHg 80%
    04:00 +10°C° 0.1 mm 7 mps 760 mmHg 80%
    05:00 +10°C° 0 mm 7 mps 759 mmHg 79%
    06:00 +9°C° 0 mm 6 mps 759 mmHg 78%
    07:00 +9°C° 0 mm 6 mps 759 mmHg 77%
    08:00 +10°C° 0 mm 6 mps 759 mmHg 74%
    09:00 +11°C° 0 mm 6 mps 759 mmHg 71%
    10:00 +12°C° 0 mm 7 mps 759 mmHg 68%
    11:00 +12°C° 0 mm 7 mps 758 mmHg 68%
    12:00 +13°C° 0 mm 8 mps 758 mmHg 69%
    13:00 +13°C° 0 mm 8 mps 757 mmHg 69%
    14:00 +15°C° 0 mm 8 mps 757 mmHg 69%
    15:00 +15°C° 0 mm 9 mps 757 mmHg 70%
    16:00 +15°C° 0 mm 9 mps 756 mmHg 71%
    17:00 +14°C° 0 mm 10 mps 757 mmHg 72%
    18:00 +14°C° 0 mm 10 mps 757 mmHg 74%
    19:00 +14°C° 0 mm 10 mps 757 mmHg 75%
    20:00 +14°C° 0 mm 10 mps 758 mmHg 76%
    21:00 +14°C° 0 mm 10 mps 758 mmHg 76%
    22:00 +13°C° 0 mm 10 mps 758 mmHg 77%
    23:00 +13°C° 0 mm 10 mps 758 mmHg 76%

    14 December, Saturday

    Time Temperature Precipitation Wind Pressure Humidity
    00:00 +13°C° 0 mm 9 mps 758 mmHg 76%
    01:00 +13°C° 0 mm 9 mps 758 mmHg 75%
    02:00 +12°C° 0 mm 9 mps 758 mmHg 74%
    03:00 +12°C° 0 mm 9 mps 758 mmHg 74%
    04:00 +12°C° 0 mm 9 mps 758 mmHg 74%
    05:00 +12°C° 0 mm 8 mps 759 mmHg 75%
    06:00 +12°C° 0 mm 8 mps 759 mmHg 75%
    07:00 +12°C° 0 mm 8 mps 760 mmHg 76%
    08:00 +13°C° 0 mm 8 mps 760 mmHg 74%
    09:00 +15°C° 0 mm 8 mps 761 mmHg 71%
    10:00 +16°C° 0 mm 8 mps 762 mmHg 69%
    11:00 +16°C° 0 mm 7 mps 761 mmHg 66%
    12:00 +17°C° 0 mm 7 mps 761 mmHg 64%
    13:00 +18°C° 0 mm 7 mps 761 mmHg 61%
    14:00 +19°C° 0 mm 6 mps 761 mmHg 63%
    15:00 +17°C° 0 mm 6 mps 761 mmHg 65%
    16:00 +17°C° 0 mm 5 mps 761 mmHg 67%
    17:00 +16°C° 0 mm 5 mps 762 mmHg 72%
    18:00 +15°C° 0 mm 4 mps 762 mmHg 77%
    19:00 +13°C° 0 mm 3 mps 762 mmHg 82%
    20:00 +13°C° 0 mm 3 mps 762 mmHg 82%
    21:00 +13°C° 0 mm 3 mps 763 mmHg 83%
    22:00 +14°C° 0 mm 2 mps 763 mmHg 84%
    23:00 +14°C° 0 mm 2 mps 763 mmHg 83%

    15 December, Sunday

    Time Temperature Precipitation Wind Pressure Humidity
    00:00 +13°C° 0 mm 2 mps 763 mmHg 82%
    01:00 +13°C° 0 mm 1 mps 763 mmHg 81%
    02:00 +13°C° 0 mm 1 mps 762 mmHg 79%
    03:00 +13°C° 0 mm 1 mps 762 mmHg 78%
    04:00 +13°C° 0 mm 1 mps 762 mmHg 76%
    05:00 +13°C° 0 mm 1 mps 762 mmHg 75%
    06:00 +13°C° 0 mm 1 mps 762 mmHg 74%
    07:00 +12°C° 0 mm 1 mps 762 mmHg 72%
    08:00 +14°C° 0 mm 1 mps 762 mmHg 68%
    09:00 +15°C° 0 mm 1 mps 763 mmHg 64%
    10:00 +18°C° 0 mm 1 mps 763 mmHg 60%
    11:00 +19°C° 0 mm 1 mps 762 mmHg 57%
    12:00 +20°C° 0 mm 1 mps 762 mmHg 55%
    13:00 +21°C° 0 mm 1 mps 761 mmHg 52%
    14:00 +21°C° 0 mm 1 mps 761 mmHg 56%
    15:00 +20°C° 0 mm 2 mps 761 mmHg 60%
    16:00 +19°C° 0 mm 2 mps 760 mmHg 64%
    17:00 +18°C° 0 mm 2 mps 761 mmHg 67%
    18:00 +17°C° 0 mm 2 mps 761 mmHg 70%
    19:00 +16°C° 0 mm 2 mps 761 mmHg 72%
    20:00 +16°C° 0 mm 2 mps 761 mmHg 70%
    21:00 +16°C° 0 mm 2 mps 761 mmHg 67%
    22:00 +16°C° 0 mm 2 mps 761 mmHg 64%
    23:00 +16°C° 0 mm 2 mps 761 mmHg 62%
    Show more